This is the latest recevied weather packets stored in our database for station/object N3FAA. If no packets are shown the sender has not sent any weather packets the latest 10 day(s).
| Time | Temp. | Humidity | Pressure | Rain* | Wind** | Luminosity | Snow |
|---|---|---|---|---|---|---|---|
| 1777739240 | 23.33° C | 29% | 1012.3 hPa | 0 mm | - | 668 W/m² | - |
| 1777738937 | 23.33° C | 30% | 1012.4 hPa | 0 mm | - | 656 W/m² | - |
| 1777738634 | 23.89° C | 30% | 1012.2 hPa | 0 mm | - | 614 W/m² | - |
| 1777738330 | 22.78° C | 32% | 1012.3 hPa | 0 mm | - | 603 W/m² | - |
| 1777738029 | 22.78° C | 32% | 1012.3 hPa | 0 mm | - | 557 W/m² | - |
| 1777737728 | 21.67° C | 32% | 1012.5 hPa | 0 mm | - | 531 W/m² | - |
| 1777737426 | 21.11° C | 34% | 1012.3 hPa | 0 mm | - | 460 W/m² | - |
| 1777737122 | 21.67° C | 34% | 1012.4 hPa | 0 mm | - | 452 W/m² | - |
| 1777736818 | 21.11° C | 35% | 1012.4 hPa | 0 mm | - | 406 W/m² | - |
| 1777736189 | 20° C | 38% | 1012.4 hPa | 0 mm | - | 333 W/m² | - |
| 1777735886 | 20° C | 40% | 1012.6 hPa | 0 mm | - | 318 W/m² | - |
| 1777735584 | 20° C | 38% | 1012.4 hPa | 0 mm | - | 302 W/m² | - |
| 1777735281 | 20° C | 38% | 1012.6 hPa | 0 mm | - | 311 W/m² | - |
| 1777734978 | 19.44° C | 39% | 1013 hPa | 0 mm | - | 298 W/m² | - |
| 1777734676 | 19.44° C | 40% | 1012.5 hPa | 0 mm | - | 283 W/m² | - |
| 1777734373 | 19.44° C | 40% | 1012.5 hPa | 0 mm | - | 267 W/m² | - |
| 1777734069 | 18.89° C | 43% | 1012.3 hPa | 0 mm | - | 243 W/m² | - |
| 1777733765 | 18.33° C | 44% | 1012.4 hPa | 0 mm | - | 205 W/m² | - |
| 1777733462 | 18.33° C | 43% | 1012.4 hPa | 0 mm | - | 180 W/m² | - |
| 1777733158 | 16.11° C | 50% | 1012.4 hPa | 0 mm | - | 160 W/m² | - |
| 1777732855 | 15.56° C | 50% | 1012.5 hPa | 0 mm | - | 144 W/m² | - |
| 1777732551 | 14.44° C | 52% | 1012.6 hPa | 0 mm | - | 147 W/m² | - |
| 1777732250 | 13.89° C | 53% | 1012.2 hPa | 0 mm | - | 137 W/m² | - |
| 1777731946 | 13.89° C | 54% | 1012.3 hPa | 0 mm | - | 126 W/m² | - |
| 1777731643 | 13.33° C | 55% | 1012.5 hPa | 0 mm | - | 113 W/m² | - |
* Rain latest hour (hover to see other rain measurements)
** Current wind speed in m/s (hover to see current wind gust speed)